Location: Carrières
(48.9495°N, 2.0407°E)
Time: 19:08:13
(UTC+00:00)

PAYLOAD B - Pass Details

Date: 28 January 2023
Orbit: 849 x 870 km, 99.1° (Epoch: 26 March)

Event Time Altitude Azimuth Distance (km) Brightness Sun altitude
Rises 18:00:49 0° 153° (SSE) 3,424 7.2 -12.9°
Reaches altitude 10° 18:03:12 10° 150° (SSE) 2,489 6.5 -13.3°
Maximum altitude 18:08:39 65° 70° (ENE) 940 4.2 -14.2°
Drops below altitude 10° 18:14:07 10° 350° (N) 2,493 6.7 -15.1°
Sets 18:16:31 0° 347° (NNW) 3,431 7.4 -15.5°
